GW0821 Weather Reports


time (UTC)temp
F
wind
direction
speed
knots
gust
knots
rain 1hr
in
rain 24hr
in
rain mn
in
humidity
%
barometer
mb
20260831024548 60 0 0.0 0.0 0.00 0.00 0.00 73 1017.5
20260831023056 60 0 0.0 0.0 0.00 0.00 0.00 72 1017.4
20260831021553 60 0 0.0 0.0 0.00 0.00 0.00 72 1017.5
20260831020052 61 0 0.0 0.0 0.00 0.00 0.00 70 1017.5
20260831014602 61 0 0.0 0.0 0.00 0.00 0.00 70 1017.6
20260831013057 61 0 0.0 0.0 0.00 0.00 0.00 70 1017.6
20260831011615 62 0 0.0 0.0 0.00 0.00 0.00 69 1017.7
20260831010058 62 0 0.0 0.0 0.00 0.00 0.00 68 1017.7
20260831004555 62 0 0.0 0.9 0.00 0.00 0.00 67 1017.5
20260831003054 62 0 0.0 0.0 0.00 0.00 0.00 67 1017.4
20260831001600 63 0 0.0 0.0 0.00 0.00 0.00 66 1017.4
20260831000058 63 0 0.0 0.9 0.00 0.00 0.00 66 1017.4
20260830234555 64 0 0.0 0.9 0.00 0.00 0.00 66 1017.4
20260830233055 64 0 0.0 0.0 0.00 0.00 0.00 64 1017.5
20260830231608 65 0 0.0 0.0 0.00 0.00 0.00 64 1017.5
20260830230057 65 0 0.0 0.0 0.00 0.00 0.00 64 1017.5
20260830224611 65 0 0.0 0.0 0.00 0.00 0.00 64 1017.5
20260830223054 66 0 0.0 0.0 0.00 0.00 0.00 64 1017.4
20260830221548 66 0 0.0 0.0 0.00 0.00 0.00 65 1017.4
20260830214557 67 0 0.0 0.0 0.00 0.00 0.00 65 1017.2
20260830213053 68 0 0.0 0.0 0.00 0.00 0.00 65 1017.2
20260830211551 68 0 0.0 0.0 0.00 0.00 0.00 64 1017.1
20260830210100 69 0 0.0 0.0 0.00 0.00 0.00 64 1017.1
20260830204549 70 0 0.0 0.0 0.00 0.00 0.00 63 1017.1
20260830203056 71 0 0.0 0.0 0.00 0.00 0.00 61 1016.8
20260830201552 72 0 0.0 0.0 0.00 0.00 0.00 61 1016.6
20260830200050 73 0 0.0 0.0 0.00 0.00 0.00 59 1016.4
20260830194601 74 0 0.0 0.0 0.00 0.00 0.00 57 1016.3
20260830193055 75 0 0.0 0.9 0.00 0.00 0.00 56 1016.2
20260830191551 76 0 0.0 3.5 0.00 0.00 0.00 54 1015.9
20260830190051 77 149 0.9 3.5 0.00 0.00 0.00 53 1015.7
20260830184559 78 151 1.7 5.2 0.00 0.00 0.00 51 1015.6
20260830183054 79 164 1.7 4.3 0.00 0.00 0.00 49 1015.6
20260830181551 79 118 2.6 7.0 0.00 0.00 0.00 48 1015.5
20260830180053 80 151 2.6 7.0 0.00 0.00 0.00 47 1015.4
20260830174555 81 139 2.6 7.8 0.00 0.00 0.00 45 1015.4
20260830173053 83 138 3.5 8.7 0.00 0.00 0.00 44 1015.3
20260830171557 84 200 3.5 8.7 0.00 0.00 0.00 43 1015.4
20260830170101 85 188 2.6 9.6 0.00 0.00 0.00 44 1015.3
20260830164601 85 162 3.5 7.0 0.00 0.00 0.00 44 1015.3
20260830163100 86 171 2.6 12.2 0.00 0.00 0.00 45 1015.3
20260830161600 86 122 2.6 9.6 0.00 0.00 0.00 42 1015.0
20260830160053 86 127 3.5 10.4 0.00 0.00 0.00 42 1015.1
20260830154550 86 201 7.0 12.2 0.00 0.00 0.00 43 1015.2
20260830153059 88 181 2.6 9.6 0.00 0.00 0.00 43 1015.2
20260830151552 87 152 2.6 7.8 0.00 0.00 0.00 43 1015.2
20260830150055 86 134 4.3 12.2 0.00 0.00 0.00 45 1015.4
20260830144552 87 166 3.5 12.2 0.00 0.00 0.00 44 1015.5
20260830143110 87 182 5.2 7.8 0.00 0.00 0.00 44 1015.6
20260830141551 86 151 3.5 12.2 0.00 0.00 0.00 44 1015.6
20260830140051 86 143 5.2 13.9 0.00 0.00 0.00 44 1015.6
20260830134555 87 190 5.2 12.2 0.00 0.00 0.00 43 1015.8
20260830133051 86 91 7.8 14.8 0.00 0.00 0.00 42 1015.7
20260830131551 86 165 6.1 11.3 0.00 0.00 0.00 42 1015.8
20260830130101 87 184 5.2 10.4 0.00 0.00 0.00 40 1015.9
20260830124555 86 227 5.2 7.8 0.00 0.00 0.00 39 1016.1
20260830123108 86 181 3.5 7.8 0.00 0.00 0.00 39 1016.3
20260830121550 86 280 3.5 8.7 0.00 0.00 0.00 38 1016.4
20260830120058 85 236 1.7 4.3 0.00 0.00 0.00 38 1016.6
20260830114605 85 256 3.5 8.7 0.00 0.00 0.00 39 1016.7
20260830113049 84 274 2.6 6.1 0.00 0.00 0.00 40 1016.7
20260830111547 84 199 2.6 6.1 0.00 0.00 0.00 41 1017.2
20260830110058 83 158 0.9 6.1 0.00 0.00 0.00 42 1017.3
20260830104555 83 157 1.7 6.1 0.00 0.00 0.00 41 1017.3
20260830103053 83 168 3.5 8.7 0.00 0.00 0.00 43 1017.5
20260830101556 83 132 3.5 7.0 0.00 0.00 0.00 43 1017.6
20260830100046 82 134 3.5 8.7 0.00 0.00 0.00 42 1017.6
20260830094552 83 155 5.2 9.6 0.00 0.00 0.00 42 1017.7
20260830093052 82 211 3.5 7.8 0.00 0.00 0.00 42 1017.7
20260830091557 81 149 2.6 7.0 0.00 0.00 0.00 46 1017.8
20260830090051 79 113 1.7 2.6 0.00 0.00 0.00 53 1018.0
20260830084600 77 231 0.0 3.5 0.00 0.00 0.00 58 1018.0
20260830083058 75 53 2.6 5.2 0.00 0.00 0.00 63 1018.0
20260830081604 73 347 1.7 7.0 0.00 0.00 0.00 66 1018.0
20260830080052 72 12 2.6 6.1 0.00 0.00 0.00 67 1018.2
20260830074604 71 108 1.7 7.0 0.00 0.00 0.00 70 1018.1
20260830073052 70 96 0.0 3.5 0.00 0.00 0.00 72 1018.2
20260830071600 68 106 0.9 3.5 0.00 0.00 0.00 75 1018.2
20260830070053 66 98 0.0 1.7 0.00 0.00 0.00 78 1018.2
20260830064551 64 0 0.0 0.0 0.00 0.00 0.00 79 1018.2
20260830063100 60 0 0.0 0.0 0.00 0.00 0.00 86 1018.2
20260830061551 58 0 0.0 0.0 0.00 0.00 0.00 86 1018.2
20260830060055 58 0 0.0 0.0 0.00 0.00 0.00 87 1018.2
20260830054557 57 0 0.0 0.0 0.00 0.00 0.00 87 1018.1
20260830053052 58 0 0.0 0.0 0.00 0.00 0.00 87 1018.0
20260830051554 58 0 0.0 0.0 0.00 0.00 0.00 86 1017.8
20260830044553 58 0 0.0 0.0 0.00 0.00 0.00 86 1017.8
20260830043049 58 0 0.0 0.0 0.00 0.00 0.00 86 1017.8
20260830041606 59 0 0.0 0.0 0.00 0.00 0.00 85 1017.8
20260830040050 59 0 0.0 0.0 0.00 0.00 0.00 85 1017.8
20260830034556 59 0 0.0 0.0 0.00 0.00 0.00 85 1017.7
20260830033052 60 0 0.0 0.0 0.00 0.00 0.00 85 1017.8
20260830031602 60 0 0.0 0.0 0.00 0.00 0.00 84 1017.8